This demonstration page uses our WeatherBlox Daily Observations layout. Learn more.

Left ArrowRight Arrow

Hourly Observations for August 28, 2022

Temp ( °F °C ) Dew Point ( °F °C ) Humidity (%) Winds ( mph kmh ) Pressure ( in mb ) Visibility ( mi km ) Precip ( " mm )
12:52 am 00:52 Cloudy 71 21.7 68 20 90 90 SSE 8 13 29.70 1006 10 16 0.00 0.00
1:52 am 01:52 Mostly Cloudy 72 22.2 68 20 87 87 SSE 12 19 29.70 1006 10 16 0.00 0.00
2:52 am 02:52 Mostly Cloudy 72 22.2 69 20.6 91 91 S 7 11 29.69 1005 10 16 0.00 0.00
3:52 am 03:52 Partly Cloudy 72 22.2 68 20 87 87 S 13 20 29.67 1005 10 16 0.00 0.00
4:52 am 04:52 Mostly Clear 71 21.7 68 20 90 90 S 12 19 29.67 1005 10 16 0.00 0.00
5:52 am 05:52 Mostly Clear 71 21.7 67 19.4 87 87 S 10 17 29.68 1005 10 16 0.00 0.00
6:52 am 06:52 Partly Cloudy 70 21.1 67 19.4 90 90 SSE 12 19 29.70 1006 10 16 0.00 0.00
7:52 am 07:52 Mostly Sunny 70 21.1 68 20 93 93 S 15 24 29.70 1006 10 16 0.00 0.00
8:52 am 08:52 Mostly Sunny 73 22.8 67 19.4 81 81 S 17 28 29.68 1005 10 16 0.00 0.00
9:52 am 09:52 Mostly Sunny 76 24.4 68 20 77 77 S 17 28 29.67 1005 10 16 0.00 0.00
10:52 am 10:52 Mostly Cloudy 79 26.1 69 20.6 72 72 S 16 26 29.67 1005 10 16 0.00 0.00
11:52 am 11:52 Mostly Cloudy 82 27.8 70 21.1 67 67 S 18 30 29.65 1004 10 16 0.00 0.00
12:52 pm 12:52 Mostly Sunny 85 29.4 71 21.7 63 63 S 22 35 29.64 1004 10 16 0.00 0.00
1:52 pm 13:52 Mostly Sunny 87 30.6 72 22.2 61 61 S 17 28 29.62 1003 10 16 0.00 0.00
2:52 pm 14:52 Mostly Sunny 89 31.7 72 22.2 57 57 S 20 31 29.61 1003 10 16 0.00 0.00
3:52 pm 15:52 Mostly Sunny 91 32.8 72 22.2 54 54 S 22 35 29.58 1002 10 16 0.00 0.00
4:52 pm 16:52 Mostly Sunny 92 33.3 75 23.9 58 58 S 12 19 29.57 1002 10 16 0.00 0.00
5:52 pm 17:52 Mostly Sunny 92 33.3 74 23.3 56 56 S 14 22 29.58 1002 10 16 0.00 0.00
6:52 pm 18:52 Mostly Sunny 89 31.7 75 23.9 63 63 SSE 15 24 29.58 1002 10 16 0.00 0.00
7:52 pm 19:52 Mostly Sunny 86 30 75 23.9 70 70 SSE 10 17 29.60 1003 10 16 0.00 0.00
8:52 pm 20:52 Mostly Clear 85 29.4 75 23.9 72 72 SSE 13 20 29.62 1003 10 16 0.00 0.00
9:52 pm 21:52 Clear 83 28.3 75 23.9 77 77 S 12 19 29.65 1004 10 16 0.00 0.00
10:52 pm 22:52 Clear 80 26.7 75 23.9 85 85 SSE 9 15 29.67 1005 10 16 0.00 0.00
11:52 pm 23:52 Clear 78 25.6 75 23.9 90 90 NNW 5 7 29.69 1005 10 16 0.00 0.00

Powered by AerisWeather